GADJU EGBO-EGBW

Flight info

Callsign GADJU
Flight time N/A
Altitude 2500
Route VFR
Aircraft C172/L-SY/S

Departure

Time 2026-04-28 17:10
Airport Wolverhampton Halfpenny Green Airport (EGBO)

Arrival

Time N/A
Airport Wellesbourne Mountford Airfield (EGBW)
Time Latitude Longitude Altitude Speed Heading
2026-04-28 17:02 52.51568 -2.26229 270 ft 0 kts 186°
2026-04-28 17:05 52.51559 -2.26232 270 ft 5 kts 198°
2026-04-28 17:05 52.51520 -2.26289 270 ft 8 kts 263°
2026-04-28 17:05 52.51526 -2.26397 268 ft 12 kts 278°
2026-04-28 17:06 52.51550 -2.26720 262 ft 19 kts 290°
2026-04-28 17:06 52.51618 -2.26701 261 ft 12 kts 51°
2026-04-28 17:06 52.51703 -2.26493 266 ft 9 kts 92°
2026-04-28 17:07 52.51697 -2.26387 266 ft 9 kts 92°
2026-04-28 17:07 52.51687 -2.26275 269 ft 12 kts 96°
2026-04-28 17:07 52.51676 -2.26117 272 ft 15 kts 97°
2026-04-28 17:07 52.51671 -2.26026 275 ft 0 kts 199°
2026-04-28 17:08 52.51668 -2.26016 276 ft 1 kts 360°
2026-04-28 17:08 52.51668 -2.26017 276 ft 0 kts 339°
2026-04-28 17:08 52.51671 -2.26015 276 ft 1 kts 45°
2026-04-28 17:09 52.51669 -2.25993 275 ft 5 kts 109°
2026-04-28 17:09 52.51665 -2.25912 277 ft 7 kts 48°
2026-04-28 17:09 52.51760 -2.25967 279 ft 36 kts 336°
2026-04-28 17:09 52.52059 -2.26148 447 ft 48 kts 357°
2026-04-28 17:10 52.52375 -2.26294 770 ft 43 kts 358°
2026-04-28 17:10 52.52665 -2.26462 1008 ft 45 kts 13°
2026-04-28 17:10 52.52934 -2.26316 1305 ft 40 kts 51°
2026-04-28 17:10 52.52894 -2.25861 1591 ft 61 kts 124°
2026-04-28 17:11 52.52450 -2.25508 1894 ft 69 kts 138°
2026-04-28 17:11 52.52000 -2.25225 2198 ft 71 kts 142°
2026-04-28 17:11 52.51550 -2.24946 2469 ft 70 kts 139°
2026-04-28 17:11 52.51145 -2.24536 2698 ft 69 kts 128°
2026-04-28 17:12 52.50720 -2.24118 2923 ft 75 kts 134°
2026-04-28 17:12 52.50248 -2.23678 2986 ft 81 kts 134°
2026-04-28 17:12 52.49742 -2.23210 3030 ft 86 kts 134°
2026-04-28 17:12 52.49198 -2.22729 3048 ft 92 kts 136°
2026-04-28 17:13 52.48635 -2.22227 3054 ft 94 kts 136°
2026-04-28 17:13 52.48064 -2.21714 3056 ft 92 kts 137°
2026-04-28 17:13 52.47499 -2.21235 3089 ft 92 kts 136°
2026-04-28 17:13 52.46989 -2.20644 3082 ft 88 kts 127°
2026-04-28 17:14 52.46511 -2.20005 3066 ft 87 kts 122°
2026-04-28 17:14 52.46108 -2.19306 3061 ft 84 kts 117°
2026-04-28 17:14 52.45726 -2.18576 3032 ft 86 kts 116°
2026-04-28 17:14 52.45350 -2.17811 3004 ft 84 kts 113°
2026-04-28 17:15 52.44993 -2.17062 2978 ft 84 kts 114°
2026-04-28 17:15 52.44643 -2.16301 2984 ft 82 kts 110°
2026-04-28 17:15 52.44337 -2.15516 2985 ft 80 kts 104°
2026-04-28 17:15 52.44107 -2.14717 2987 ft 77 kts 99°
2026-04-28 17:16 52.43904 -2.13915 2975 ft 77 kts 98°
2026-04-28 17:16 52.43718 -2.13106 2973 ft 74 kts 95°
2026-04-28 17:16 52.43559 -2.12307 2969 ft 73 kts 96°
2026-04-28 17:16 52.43362 -2.11546 2996 ft 74 kts 100°
2026-04-28 17:17 52.43181 -2.10711 2880 ft 86 kts 94°
2026-04-28 17:17 52.43026 -2.09703 2687 ft 91 kts 94°
2026-04-28 17:17 52.42919 -2.08757 2621 ft 80 kts 90°
2026-04-28 17:17 52.42822 -2.07889 2579 ft 73 kts 90°
2026-04-28 17:18 52.42695 -2.07069 2455 ft 76 kts 92°
2026-04-28 17:18 52.42593 -2.06225 2416 ft 77 kts 89°
2026-04-28 17:18 52.42479 -2.05392 2466 ft 75 kts 92°
2026-04-28 17:18 52.42368 -2.04542 2480 ft 77 kts 88°
2026-04-28 17:19 52.42296 -2.03673 2493 ft 77 kts 86°
2026-04-28 17:19 52.42316 -2.02784 2432 ft 77 kts 77°
2026-04-28 17:19 52.42330 -2.01921 2439 ft 75 kts 80°
2026-04-28 17:19 52.42352 -2.01068 2438 ft 75 kts 81°
2026-04-28 17:20 52.42360 -2.00211 2446 ft 78 kts 82°
2026-04-28 17:20 52.42362 -1.99616 2459 ft 75 kts 83°
2026-04-28 17:20 52.42310 -1.98512 2450 ft 74 kts 83°
2026-04-28 17:20 52.42248 -1.97653 2403 ft 76 kts 83°
2026-04-28 17:21 52.42203 -1.96822 2416 ft 71 kts 83°
2026-04-28 17:21 52.42171 -1.96023 2411 ft 71 kts 82°
2026-04-28 17:21 52.42141 -1.95218 2417 ft 72 kts 83°
2026-04-28 17:22 52.42038 -1.93545 2444 ft 74 kts 84°
2026-04-28 17:22 52.42008 -1.92705 2426 ft 77 kts 82°
2026-04-28 17:22 52.41985 -1.91825 2393 ft 80 kts 84°
2026-04-28 17:23 52.41793 -1.90074 2398 ft 73 kts 86°
2026-04-28 17:23 52.41709 -1.89235 2381 ft 76 kts 85°
2026-04-28 17:23 52.41634 -1.88376 2390 ft 75 kts 85°
2026-04-28 17:23 52.41572 -1.87560 2427 ft 70 kts 82°
2026-04-28 17:24 52.41514 -1.86744 2404 ft 73 kts 84°
2026-04-28 17:24 52.41457 -1.85933 2422 ft 71 kts 82°
2026-04-28 17:24 52.41410 -1.85115 2418 ft 72 kts 82°
2026-04-28 17:24 52.41361 -1.84306 2392 ft 71 kts 80°
2026-04-28 17:25 52.41336 -1.83521 2389 ft 70 kts 79°
2026-04-28 17:25 52.41303 -1.81913 2396 ft 68 kts 78°
2026-04-28 17:25 52.41357 -1.81164 2393 ft 67 kts 71°
2026-04-28 17:26 52.41464 -1.80432 2412 ft 64 kts 68°
2026-04-28 17:26 52.41603 -1.79744 2428 ft 64 kts 63°
2026-04-28 17:26 52.41778 -1.79068 2429 ft 64 kts 61°
2026-04-28 17:26 52.41971 -1.78386 2371 ft 70 kts 59°
2026-04-28 17:27 52.42208 -1.77659 2324 ft 72 kts 58°
2026-04-28 17:27 52.42424 -1.76935 2314 ft 72 kts 64°
2026-04-28 17:27 52.42615 -1.76150 2227 ft 76 kts 63°
2026-04-28 17:27 52.42819 -1.75380 2235 ft 71 kts 60°
2026-04-28 17:28 52.43018 -1.74616 2203 ft 72 kts 62°
2026-04-28 17:28 52.43423 -1.73115 2159 ft 72 kts 56°
2026-04-28 17:28 52.43709 -1.72466 2169 ft 69 kts 50°
2026-04-28 17:29 52.44018 -1.71873 2176 ft 69 kts 47°
2026-04-28 17:29 52.44347 -1.71258 2103 ft 72 kts 53°
2026-04-28 17:29 52.44563 -1.70548 2069 ft 71 kts 68°
2026-04-28 17:30 52.44617 -1.68880 2033 ft 78 kts 90°
2026-04-28 17:30 52.44410 -1.67138 1984 ft 77 kts 89°
2026-04-28 17:30 52.44329 -1.66277 1985 ft 74 kts 85°
2026-04-28 17:31 52.44294 -1.65430 1933 ft 76 kts 75°
2026-04-28 17:31 52.44467 -1.63854 1972 ft 71 kts 69°
2026-04-28 17:32 52.44685 -1.62367 2006 ft 68 kts 69°
2026-04-28 17:32 52.44796 -1.61637 2027 ft 64 kts 65°
2026-04-28 17:32 52.44912 -1.60947 1968 ft 63 kts 70°
2026-04-28 17:32 52.45011 -1.60227 1944 ft 65 kts 72°
2026-04-28 17:33 52.45082 -1.59514 1997 ft 61 kts 73°
2026-04-28 17:33 52.45137 -1.58845 2008 ft 60 kts 72°
2026-04-28 17:33 52.45202 -1.58154 2027 ft 62 kts 72°
2026-04-28 17:33 52.45258 -1.57697 2047 ft 59 kts 68°
2026-04-28 17:34 52.45390 -1.56772 2019 ft 61 kts 70°
2026-04-28 17:34 52.45478 -1.56079 1976 ft 62 kts 71°
2026-04-28 17:34 52.45579 -1.55423 1951 ft 60 kts 67°
2026-04-28 17:34 52.45657 -1.54774 2073 ft 58 kts 70°
2026-04-28 17:35 52.45742 -1.54118 2170 ft 61 kts 69°
2026-04-28 17:35 52.45754 -1.53411 2290 ft 63 kts 82°
2026-04-28 17:35 52.45695 -1.52684 2371 ft 66 kts 84°
2026-04-28 17:35 52.45634 -1.51894 2409 ft 70 kts 82°
2026-04-28 17:36 52.45607 -1.51143 2455 ft 72 kts 94°
2026-04-28 17:36 52.45293 -1.50402 2477 ft 77 kts 105°
2026-04-28 17:36 52.45008 -1.49696 2588 ft 75 kts 107°
2026-04-28 17:36 52.44698 -1.48974 2622 ft 77 kts 107°
2026-04-28 17:37 52.44407 -1.48287 2716 ft 73 kts 103°
2026-04-28 17:37 52.44181 -1.47528 2733 ft 76 kts 102°
2026-04-28 17:37 52.43888 -1.46787 2744 ft 78 kts 109°
2026-04-28 17:37 52.43617 -1.46007 2716 ft 82 kts 103°
2026-04-28 17:38 52.43371 -1.45173 2736 ft 77 kts 96°
2026-04-28 17:38 52.43288 -1.44327 2757 ft 76 kts 85°
2026-04-28 17:38 52.43248 -1.43467 2807 ft 75 kts 81°
2026-04-28 17:38 52.43245 -1.42557 2678 ft 84 kts 76°
2026-04-28 17:39 52.43239 -1.41740 2789 ft 73 kts 95°
2026-04-28 17:39 52.42932 -1.40999 2841 ft 81 kts 110°
2026-04-28 17:39 52.42364 -1.39435 2901 ft 76 kts 99°
2026-04-28 17:40 52.42121 -1.38657 2951 ft 77 kts 104°